Regional Weather Roundup
Issued by NWS Northern Indiana

Home | Current Version | Previous Version | Text Only | Print | Product List | Glossary On
Versions: 1 2 3 4 5 6 7 8 9 10 11 12 13 14 15 16 17 18 19 20 21 22 23 24 25 26 27 28 29 30 31 32 33 34 35 36 37 38 39 40 41 42 43 44 45 46 47 48 49 50
064
ASUS43 KIWX 272110
RWRIWX

KIWX WEATHER ROUNDUP
NATIONAL WEATHER SERVICE NORTHERN INDIANA
500 PM EDT TUE JUN 27 2017

NOTE: "FAIR" INDICATES FEW OR NO CLOUDS BELOW 12,000 FEET WITH NO
SIGNIFICANT WEATHER AND/OR OBSTRUCTIONS TO VISIBILITY.

* THESE STATIONS ARE NOT UNDER NWS QUALITY CONTROL. THEY ALSO MAY NOT
  REPORT WEATHER SUCH AS PRECIPITATION OR FOG.

INZ001>027-272200-
NORTHERN INDIANA

CITY           SKY/WX    TMP DP  RH WIND       PRES   REMARKS
GARY*          MOSUNNY   75  43  31 NE8       30.09F
VALPARAISO     MOSUNNY   74  45  35 NE8       30.09F
MICHIGAN CITY* SUNNY     72  43  35 NE3       30.10F
LAPORTE*       SUNNY     72  42  33 NW3       30.11S
KNOX*          MOSUNNY   73  36  25 N8G17     30.09S
SOUTH BEND     SUNNY     71  44  37 NW10      30.10F
ELKHART*       SUNNY     72  43  35 NW8G18    30.09F
GOSHEN         MOSUNNY   73  42  32 NW13G20   30.08F
MONTICELLO*    MOSUNNY   73  46  37 W5        30.10S
LOGANSPORT*    PTSUNNY   72  48  43 SW6       30.11S
ROCHESTER*     MOSUNNY   73  45  35 NW8       30.10S
WARSAW*        MOSUNNY   72  43  35 NW13G18   30.09S
AUBURN*        MOSUNNY   72  43  35 W3G10     30.08F
FORT WAYNE     PTSUNNY   73  46  38 W13       30.10S
HUNTINGTON*    PTSUNNY   69  48  48 CALM      30.10S
PERU/GRISSOM   MOSUNNY   72  49  42 N5        30.09F
MARION*        MOSUNNY   72  45  37 W8        30.12S

$$
INZ028>050-272200-
CENTRAL INDIANA

CITY           SKY/WX    TMP DP  RH WIND       PRES   REMARKS
LAFAYETTE      MOSUNNY   70  48  45 CALM      30.10S
KOKOMO*        MOSUNNY   72  49  44 NW8       30.12S
MUNCIE*        PTSUNNY   74  44  34 CALM      30.11F
INDIANAPOLIS   MOSUNNY   73  46  38 VRB6      30.11F

$$
MIZ043>046-050>051-056>058-064>065-071>073-077>080-272200-
SOUTHWEST LOWER MICHIGAN

CITY           SKY/WX    TMP DP  RH WIND       PRES   REMARKS
BATTLE CREEK   MOSUNNY   73  44  35 W13G18    30.08S
BENTON HARBOR  SUNNY     71  42  35 NW6       30.09F
COLDWATER*     SUNNY     71  42  34 W9        30.07F
HILLSDALE*     MOSUNNY   70  43  37 W10G16    30.06F
HOLLAND        SUNNY     70  48  45 W10       30.09F
GRAND RAPIDS   MOSUNNY   72  49  44 W14G22    30.06S
KALAMAZOO      MOSUNNY   74  41  30 W13       30.07F
STURGIS*       PTSUNNY   71  46  40 NW7       30.07S
THREE RIVERS*  FAIR      72  43  35 W9        30.08F

$$
OHZ001>008-015>018-024>025-272200-
NORTHWEST OHIO

CITY           SKY/WX    TMP DP  RH WIND       PRES   REMARKS
WAUSEON*       PTSUNNY   72  43  35 W12G17    30.06F
DEFIANCE       PTSUNNY   71  47  42 NW13      30.07F
FINDLAY        MOSUNNY   72  45  37 W10G17    30.08F
TOLEDO EXPRESS CLOUDY    71  46  40 W12       30.06F
TOLEDO METCALF CLOUDY    73  46  38 W10       30.07F
LIMA           PTSUNNY   68  45  43 W8        30.10F

$$
AND FOR LAKE MICHIGAN COASTAL AND OPEN LAKE BUOY OBSERVATIONS

STATION/POSITION TEMP    WIND        PRES    VSBY  WAVE
                 AIR SEA DIR/SP/G                  HT/PER
                 (F)     (DEG/KT/KT) (MB)    (MI)  (FT/S)
CALUMET HARBOR    68      70/  6/ 11 1018.1F
MICHIGAN CITY     66      40/  3/  3   N/A
BURNS HARBOR      69      70/  9/ 10 1019.3F
SOUTH LAKE BUOY   63 62  170/ 10/ 12 1018.3F         1
4 MI NW BRIDGMAN  66 70  220/  4/  6 1019.2          1/ 4
MICHIGAN CITY     67 68  110/  4/  6   N/A           1/ 4

$$
&&




USA.gov is the U.S. government's official web portal to all federal, state and local government web resources and services.